STARLINK-34109, 63807

Orbit data source: Space-Track

STARLINK-34109, 63807 is a payload satellite owned by SpaceX/Seattle (US) in LEO that was launched on Sun, 04 May 2025 UTC via an FALCON 9 launch vehicle from the Air Force Eastern Test Range (AFETR). Payload-class satellites include a variety of spacecraft equipped with specific instruments for various scientific and technological missions. These include communications satellites like Starlink; space stations such as the ISS; scientific satellites like the Hubble; Earth observation satellites from companies like Planet Labs, Umbra, and HawkEye 360; GPS; miniature CubeSats for education and research; and military/defense satellites.

Loading next visibility...
Identifier
63807, 2025-092D
Orbit
LEO
Last TLE update
18 hours ago
Origin
Manufacturer
SpaceX/Seattle
Mission
Operational spacecraft
Bus & Motor
STARLINK V2MO, Unknown motor
Mass
575 kg wet, ~530 kg dry
Launch date (UTC)
2025-05-04 (2 months ago)
Launch vehicle
FALCON 9
Launch site
Air Force Eastern Test Range (AFETR)
Object type
Payload
Rocket body
Debris
Shape & HBR
Unknown
Radar Cross Section
Large (>1 m²)

Expand to show TLE details & history

TLE from 18 hours ago
0 STARLINK-34109
1 63807U 25092D   25169.51773545 -.00468097  00000-0 -13934-1 0  9999
2 63807  42.9968 224.3824 0000831 276.2857  83.7903 15.35897674  8214
Epoch: 2025-06-18T12:25Z
TLE epoch observation values (Epoch: 2025-06-18T12:25:32.342Z)
Latitude
-0.00004°
Longitude
130.99897°
Altitude
457.968 km
Speed
7.64 km/s
True Right ascension
14h 57m 31s
True Declination
0° 00' 00"
Sunlit
Object was in full shadow at epoch
Visualization orbit readout
Latitude
37.3716°
Longitude
-107.76228°
Altitude
462.908 km
Speed
7.64 km/s
Apparent Right ascension
01h 47m 54s
Apparent Declination
0° 28' 00"
Sunlit
Object is in daylight
Visualization observer readout
Local Sidereal Time
16:56:51
Azimuth
58.954° ENE
Elevation
-31.032°
Doppler factor
1
Orbital elements
Apogee altitude
460.776 km
Perigee altitude
459.64 km
Semi-major axis
6,838.345 km
Eccentricity
0.00008
Inclination
42.9968°
RAAN
224.3824°
Arg. of periapsis
276.2857°
True anomaly
Unknown
Mean anomaly
83.7903°
Eccentric anomaly
Unknown
Mean motion
3.8381 °/min
Orbital period
93.8 mins
BSTAR
-0.013934
Loading maneuver chart data...
Loading SW <> Apogee altitude chart data...
Loading historical data...
Loading historical data...
Loading historical data...
Loading historical data...
Loading historical data...
Loading historical data...
Loading historical data...

STARLINK-34109 Visibility forecast

Observer location: undefined°, undefined°

Span
Click to sort rows by Start time (UTC) header in descending order
Start Az.
Max El. time (UTC)
Max El. Az.
Max El.
End time (UTC)
End Az.
6 mins2025-06-19 07:23:25.842Z230.619° WSW2025-06-19 07:26:25.842Z126.597° SE38.668°2025-06-19 07:29:25.842Z77.059° E
5 mins2025-06-19 09:02:25.842Z280.765° WNW2025-06-19 09:04:25.842Z343.251° N39.27°2025-06-19 09:07:25.842Z69.015° E
5 mins2025-06-19 10:41:25.842Z298.103° NW2025-06-19 10:43:25.842Z26.281° NE40.655°2025-06-19 10:46:25.842Z90.378° ESE
5 mins2025-06-19 12:19:25.842Z272.605° WNW2025-06-19 12:21:25.842Z220.981° SW34.811°2025-06-19 12:24:25.842Z137.697° SSE
|